Stations météo

réclame
Mon MeteoGroup
Helgoland, Allemagne (10015): Température de l'air & dewpoint: 15.09.2018 04:00:00 - 21.09.2018 04:00:00 (CEST)Helgoland, Allemagne (10015): Température de l'air 5cm: 15.09.2018 04:00:00 - 21.09.2018 04:00:00 (CEST)Helgoland, Allemagne (10015): Vitesse du vent & gusts: 15.09.2018 04:00:00 - 21.09.2018 04:00:00 (CEST)Helgoland, Allemagne (10015): Direction du vent: 15.09.2018 04:00:00 - 21.09.2018 04:00:00 (CEST)Helgoland, Allemagne (10015): reduced air pressure: 15.09.2018 04:00:00 - 21.09.2018 04:00:00 (CEST)Helgoland, Allemagne (10015): visibility: 15.09.2018 04:00:00 - 21.09.2018 04:00:00 (CEST)Helgoland, Allemagne (10015): Ensoleillement: 15.09.2018 04:00:00 - 21.09.2018 04:00:00 (CEST)Helgoland, Allemagne (10015): Quantités de précipitations: 15.09.2018 04:00:00 - 21.09.2018 04:00:00 (CEST)
Date & Time tt [°C] td [°C] tt 5cm [°C] ff [km/h] ff [knt] fx [km/h] fx [knt] dd ppp [hPa] vv [km] sd [min] rr [mm]
21.09.2018 04:00:00 18,8 14,3 17,9 41 22 49 26 S 1002,1 34 0 0,0
21.09.2018 03:00:00 18,9 14,3 17,8 40 22 50 27 S 1003,4 27 0 0,0
21.09.2018 02:00:00 19,1 14,5 17,8 41 22 50 27 S 1004,4 28 0 0,0
21.09.2018 01:00:00 19,1 14,8 17,6 36 19 46 25 S 1005,6 27 0 0,0
21.09.2018 00:00:00 18,9 14,9 17,5 32 17 40 22 S 1006,9 23 0 0,0
20.09.2018 23:00:00 18,9 15,4 17,8 29 16 36 20 SSE 1008,0 25 0 0,0
20.09.2018 22:00:00 18,6 15,6 17,4 22 12 28 15 S 1009,1 26 0 0,0
20.09.2018 21:00:00 18,5 15,7 17,1 19 10 28 15 S 1010,0 15 0 0,0
20.09.2018 20:00:00 18,7 15,7 17,8 25 13 38 20 SW 1010,6 18 0 0,0
20.09.2018 19:00:00 19,1 15,2 18,5 31 17 37 20 SW 1011,0 18 0 0,0
20.09.2018 18:00:00 18,8 15,9 18,5 25 13 40 22 SW 1011,6 17 10 0,0
20.09.2018 17:00:00 18,6 15,8 18,5 32 18 44 24 WSW 1012,1 18 13 0,0
20.09.2018 16:00:00 19,4 15,5 19,8 35 19 46 25 SW 1012,3 20 11 0,0
20.09.2018 15:00:00 19,5 16,0 20,6 31 17 42 23 SSW 1012,2 24 1 0,0
20.09.2018 14:00:00 19,0 15,2 19,1 37 20 50 27 SW 1012,7 24 0 0,0
20.09.2018 13:00:00 18,8 15,5 19,0 32 18 48 26 SSW 1012,9 22 1 0,0
20.09.2018 12:00:00 17,9 15,6 17,5 23 12 40 22 SSW 1013,3 19 0 0,0
20.09.2018 11:00:00 15,8 14,3 15,5 13 7 22 12 WSW 1013,8 16 0 0,0
20.09.2018 10:00:00 15,4 14,5 15,1 19 10 28 15 W 1013,8 16 0 0,1
20.09.2018 09:00:00 15,6 14,9 15,4 26 14 45 24 W 1013,5 3,9 0 0,3
20.09.2018 08:00:00 17,2 14,7 16,9 36 20 49 26 SW 1013,4 13 0 0,0
20.09.2018 07:00:00 18,1 15,3 17,7 40 21 49 26 SW 1013,1 18 0 0,0
20.09.2018 06:00:00 18,3 15,5 17,8 40 21 48 26 SW 1013,1 16 0 0,0
20.09.2018 05:00:00 18,4 15,5 17,4 36 20 56 30 SW 1013,2 16 0 0,0
20.09.2018 04:00:00 18,5 15,4 17,6 40 22 54 29 SW 1013,0 14 0 0,0
20.09.2018 03:00:00 18,6 15,4 17,5 38 20 52 28 SW 1013,0 15 0 0,0
20.09.2018 02:00:00 18,7 15,5 17,6 40 21 57 31 SW 1013,2 16 0 0,0
20.09.2018 01:00:00 18,8 15,4 17,8 45 24 56 31 SW 1013,2 18 0 0,0
20.09.2018 00:00:00 19,1 15,4 18,2 45 24 56 31 SW 1013,3 18 0 0,0
19.09.2018 23:00:00 19,5 14,9 18,4 47 26 59 32 SW 1013,3 23 0 0,0
19.09.2018 22:00:00 19,7 15,0 18,4 40 21 49 26 SW 1013,3 27 0 0,0
19.09.2018 21:00:00 20,0 14,8 19,3 40 22 49 27 SW 1013,3 25 0 0,0
19.09.2018 20:00:00 19,6 15,3 18,1 33 18 41 22 SSW 1013,0 22 0 0,0
19.09.2018 19:00:00 19,7 15,3 18,6 33 18 42 23 SSW 1013,0 23 52 0,0
19.09.2018 18:00:00 20,2 15,5 21,2 32 17 40 22 SW 1013,1 23 50 0,0
19.09.2018 17:00:00 20,0 15,8 21,5 31 17 41 22 WSW 1012,9 21 59 0,0
19.09.2018 16:00:00 19,8 16,0 21,9 30 16 40 21 WSW 1012,9 16 60 0,0
19.09.2018 15:00:00 21,1 16,0 23,4 29 16 34 19 SSW 1013,0 20 37 0,0
19.09.2018 14:00:00 19,6 16,3 22,9 24 13 32 17 S 1013,3 24 44 0,0
19.09.2018 13:00:00 19,5 15,5 22,1 26 14 42 23 S 1013,5 28 50 0,0
19.09.2018 12:00:00 18,7 14,8 19,7 36 20 45 24 S 1014,0 30 2 0,0
19.09.2018 11:00:00 18,0 14,9 19,3 35 19 43 23 SSW 1014,3 23 23 0,0
19.09.2018 10:00:00 17,6 14,6 18,0 36 20 50 27 SSW 1014,4 20 38 0,0
19.09.2018 09:00:00 17,4 14,7 17,7 39 21 51 27 SSW 1013,9 19 56 0,0
19.09.2018 08:00:00 16,9 15,1 15,8 40 22 47 25 SSW 1013,9 16 0 0,0
19.09.2018 07:00:00 17,0 15,5 15,8 32 17 38 20 SSW 1013,6 14 0 0,0
19.09.2018 06:00:00 17,3 15,7 16,3 29 16 40 22 SW 1013,8 16 0 0,0
19.09.2018 05:00:00 17,4 15,9 17,2 30 16 42 23 SW 1014,0 13 0 0,0
19.09.2018 04:00:00 17,4 15,8 17,0 34 19 44 24 SW 1013,7 12 0 0,0
19.09.2018 03:00:00 17,5 15,9 16,4 33 18 42 23 SW 1013,3 12 0 0,0
19.09.2018 02:00:00 17,6 15,8 16,4 28 15 40 22 SW 1013,1 13 0 0,0
19.09.2018 01:00:00 17,8 15,8 16,5 29 16 40 22 SW 1012,8 13 0 0,0
19.09.2018 00:00:00 17,8 15,5 16,6 29 15 46 25 SW 1012,5 12 0 0,0
18.09.2018 23:00:00 18,1 15,5 17,1 38 20 47 25 WSW 1012,4 13 0 0,0
18.09.2018 22:00:00 18,4 15,4 17,4 38 20 53 28 WSW 1012,4 12 0 0,0
18.09.2018 21:00:00 18,9 15,3 18,0 39 21 53 28 WSW 1012,0 14 0 0,0
18.09.2018 20:00:00 19,1 15,2 18,2 45 25 57 31 WSW 1011,4 14 0 0,0
18.09.2018 19:00:00 19,1 15,5 18,6 42 23 54 29 W 1010,9 14 54 0,0
18.09.2018 18:00:00 19,7 15,4 20,2 44 24 54 29 W 1010,2 18 60 0,0
18.09.2018 17:00:00 19,9 16,4 21,8 30 16 44 24 W 1009,8 19 60 0,0
18.09.2018 16:00:00 20,6 15,5 22,3 34 18 42 23 W 1009,3 23 60 0,0
18.09.2018 15:00:00 21,3 16,6 24,8 16 9 34 19 SW 1008,7 25 60 0,0
18.09.2018 14:00:00 20,6 15,6 23,3 29 15 38 20 S 1008,6 22 60 0,0
18.09.2018 13:00:00 19,7 15,0 21,8 31 17 40 22 S 1008,8 28 60 0,0
18.09.2018 12:00:00 19,2 14,5 21,1 33 18 41 22 SSE 1008,9 20 60 0,0
18.09.2018 11:00:00 19,1 13,2 20,1 32 18 42 23 S 1009,5 22 60 0,0
18.09.2018 10:00:00 18,7 12,6 18,8 36 19 46 25 S 1009,9 22 60 0,0
18.09.2018 09:00:00 18,4 13,3 17,8 29 16 37 20 S 1010,3 27 59 0,0
18.09.2018 08:00:00 18,2 13,0 16,5 27 15 41 22 S 1010,7 29 5 0,0
18.09.2018 07:00:00 18,2 12,6 16,4 33 18 41 22 S 1010,6 31 0 0,0
18.09.2018 06:00:00 17,9 13,6 15,8 29 15 36 19 SSE 1011,2 23 0 0,0
18.09.2018 05:00:00 17,9 14,1 15,7 22 12 28 15 SSE 1011,9 21 0 0,0
18.09.2018 04:00:00 17,8 13,9 15,7 24 13 29 16 SSE 1012,5 26 0 0,0
18.09.2018 03:00:00 17,9 14,6 15,7 24 13 29 16 SSE 1013,0 27 0 0,0
18.09.2018 02:00:00 18,1 14,6 15,4 27 15 30 16 SSE 1013,5 20 0 0,0
18.09.2018 01:00:00 17,5 16,0 15,6 23 13 27 15 SE 1014,1 9 0 0,0
18.09.2018 00:00:00 17,4 16,3 15,9 23 13 27 14 SE 1014,6 5 0 0,0
17.09.2018 23:00:00 17,5 16,5 16,0 18 10 22 12 SE 1015,2 7 0 0,0
17.09.2018 22:00:00 17,6 16,6 16,0 17 9 18 10 SE 1015,6 14 0 0,0
17.09.2018 21:00:00 17,6 16,5 15,9 11 6 13 7 SSE 1016,2 16 0 0,0
17.09.2018 20:00:00 17,8 16,4 16,1 8 5 10 5 SSE 1016,1 19 0 0,0
17.09.2018 19:00:00 18,2 16,2 17,8 9 5 15 8 W 1016,2 23 43 0,0
17.09.2018 18:00:00 18,7 16,4 19,9 13 7 16 8 WSW 1016,5 12 57 0,0
17.09.2018 17:00:00 18,8 16,3 21,2 13 7 24 13 WSW 1016,7 11 60 0,0
17.09.2018 16:00:00 18,5 15,8 21,2 21 11 29 16 WSW 1017,3 11 60 0,0
17.09.2018 15:00:00 18,7 15,4 21,9 24 13 33 18 SW 1017,3 13 60 0,0
17.09.2018 14:00:00 18,4 15,3 21,1 27 14 34 19 SW 1017,6 14 60 0,0
17.09.2018 13:00:00 18,0 14,7 20,7 26 14 35 19 SW 1017,5 16 60 0,0
17.09.2018 12:00:00 17,9 14,7 20,1 29 16 36 20 SSW 1017,4 18 60 0,0
17.09.2018 11:00:00 17,3 14,3 18,5 32 17 39 21 SSW 1017,4 22 25 0,0
17.09.2018 10:00:00 16,9 14,1 17,2 31 17 40 22 SW 1017,5 21 35 0,0
17.09.2018 09:00:00 16,9 14,2 16,7 32 18 38 21 SW 1017,3 20 29 0,0
17.09.2018 08:00:00 16,8 14,1 15,9 29 15 34 18 SW 1017,0 24 0 0,0
17.09.2018 07:00:00 17,2 14,2 16,0 29 16 36 19 SW 1016,7 26 0 0,0
17.09.2018 06:00:00 17,1 14,0 15,8 24 13 35 19 SW 1016,8 22 0 0,0
17.09.2018 05:00:00 17,3 13,5 16,1 29 16 40 21 SW 1016,9 25 0 0,0
17.09.2018 04:00:00 17,6 13,7 16,2 32 17 41 22 SW 1016,6 26 0 0,0
17.09.2018 03:00:00 17,8 13,7 16,8 33 18 39 21 SW 1016,6 27 0 0,0
17.09.2018 02:00:00 18,0 13,7 17,0 29 16 36 20 SW 1017,4 35 0 0,0
17.09.2018 01:00:00 17,9 13,5 16,4 30 16 37 20 SW 1017,5 35 0 0,0
17.09.2018 00:00:00 18,2 13,7 17,0 29 16 35 19 SW 1018,0 36 0 0,0
16.09.2018 23:00:00 18,3 13,9 17,4 29 16 33 18 SW 1018,1 36 0 0,0
16.09.2018 22:00:00 18,2 14,2 16,4 25 14 33 18 SSW 1018,2 35 0 0,0
16.09.2018 21:00:00 18,4 14,5 17,4 23 13 29 16 SSW 1018,2 33 0 0,0
16.09.2018 20:00:00 18,5 14,0 17,6 25 14 30 16 SW 1018,2 35 0 0,0
16.09.2018 19:00:00 18,4 13,9 17,4 22 12 35 19 SW 1018,1 34 0 0,0
16.09.2018 18:00:00 18,5 13,7 18,2 26 14 34 18 SW 1018,0 30 0 0,0
16.09.2018 17:00:00 18,4 13,0 18,3 31 17 41 22 SW 1018,5 28 5 0,0
16.09.2018 16:00:00 18,2 12,7 19,0 34 18 50 27 SW 1019,1 23 26 0,0
16.09.2018 15:00:00 17,7 11,2 18,2 44 24 54 29 SW 1019,4 30 37 0,0
16.09.2018 14:00:00 18,5 12,2 21,0 42 23 54 29 SSW 1019,7 41 60 0,0
16.09.2018 13:00:00 17,8 12,1 19,6 37 20 45 25 SSW 1020,0 23 60 0,0
16.09.2018 12:00:00 17,3 11,7 19,2 34 19 43 23 SSW 1020,6 29 58 0,0
16.09.2018 11:00:00 16,5 12,3 17,9 32 18 42 23 SSW 1021,0 26 55 0,0
16.09.2018 10:00:00 15,8 11,4 16,0 37 20 46 25 SSW 1021,3 34 50 0,0
16.09.2018 09:00:00 15,5 11,6 14,9 36 19 43 23 SSW 1021,4 36 34 0,0
16.09.2018 08:00:00 15,4 11,7 14,4 34 18 41 22 SSW 1021,5 35 0 0,0
16.09.2018 07:00:00 15,5 12,2 14,7 31 17 40 22 SSW 1021,7 30 0 0,0
16.09.2018 06:00:00 15,4 12,9 14,8 28 15 32 17 SSW 1021,5 26 0 0,0
16.09.2018 05:00:00 15,4 12,5 14,7 23 12 35 19 SSW 1021,7 35 0 0,0
16.09.2018 04:00:00 15,3 11,8 14,5 27 15 32 17 SSW 1022,3 34 0 0,0
16.09.2018 03:00:00 15,4 10,1 13,5 18 10 23 12 WSW 1022,9 37 0 0,0
16.09.2018 02:00:00 15,3 9,5 13,4 17 9 23 13 W 1023,2 48 0 0,0
16.09.2018 01:00:00 15,3 8,2 13,3 19 10 29 16 W 1023,5 54 0 0,0
16.09.2018 00:00:00 15,3 8,1 13,7 22 12 32 17 W 1023,6 47 0 0,0
15.09.2018 23:00:00 15,3 8,2 13,8 23 12 32 18 W 1023,3 51 0 0,0
15.09.2018 22:00:00 15,4 8,7 14,2 29 15 39 21 WNW 1023,2 35 0 0,0
15.09.2018 21:00:00 15,4 8,9 14,0 31 17 46 25 WNW 1022,9 44 0 0,0
15.09.2018 20:00:00 15,5 7,0 13,2 35 19 52 28 WNW 1022,5 42 12 0,0
15.09.2018 19:00:00 15,9 8,7 13,9 38 21 53 29 W 1022,0 50 31 0,0
15.09.2018 18:00:00 15,8 10,2 14,5 32 17 41 22 WNW 1021,8 38 11 0,5
15.09.2018 17:00:00 14,3 11,9 13,6 22 12 32 18 WSW 1021,4 16 0 3,6
15.09.2018 16:00:00 14,7 12,1 15,1 19 10 28 15 NW 1021,3 36 4 0,3
15.09.2018 15:00:00 15,2 11,6 16,5 22 12 46 25 NW 1021,1 30 0 0,3
15.09.2018 14:00:00 16,9 9,9 18,4 31 17 42 23 W 1020,7 38 21 0,0
15.09.2018 13:00:00 16,9 9,5 19,4 34 18 41 22 W 1020,5 31 54 0,0
15.09.2018 12:00:00 16,7 9,6 18,5 35 19 45 25 WNW 1020,1 33 51 0,0
15.09.2018 11:00:00 16,4 10,7 17,7 32 18 43 23 WNW 1019,4 36 23 0,1
15.09.2018 10:00:00 15,8 11,1 14,8 35 19 44 24 WNW 1018,8 20 27 0,0
15.09.2018 09:00:00 16,0 11,2 15,6 34 18 50 27 WNW 1018,2 33 6 0,0
15.09.2018 08:00:00 16,5 11,9 15,6 40 21 50 27 WNW 1017,3 33 0 0,0
15.09.2018 07:00:00 16,4 11,9 15,7 34 18 49 26 W 1016,6 30 0 0,0
15.09.2018 06:00:00 16,3 10,9 15,3 37 20 44 24 WNW 1016,5 34 0 0,0
15.09.2018 05:00:00 16,0 12,2 14,8 34 19 54 29 WNW 1016,4 21 0 0,0
15.09.2018 04:00:00 16,3 10,6 15,1 36 19 49 27 W 1016,2 33 0 0,0

tt = Température de l'air
td = dewpoint
tt 5cm = Température de l'air 5cm
ff = Vitesse du vent
fx = gusts
dd = Direction du vent
ppp = reduced air pressure
vv = visibility
sd = Ensoleillement
rr = Quantités de précipitations

stations d'obs. à proximité